Regional Weather Roundup
Issued by NWS

Home | Current Version | Previous Version | Graphics & Text | Print | Product List | Glossary On
Versions: 1 2 3 4 5 6 7 8 9 10 11 12 13 14 15 16 17 18 19 20 21 22 23 24 25 26 27 28 29 30 31 32 33 34 35 36 37 38 39 40 41 42 43 44 45 46 47 48 49 50
000
ASUS43 KDMX 281007
RWRIA

WEATHER ROUNDUP FOR IOWA
NATIONAL WEATHER SERVICE DES MOINES IA
500 AM CDT FRI AUG 28 2015

NOTE: "FAIR" INDICATES FEW OR NO CLOUDS BELOW 12,000 FEET WITH NO
SIGNIFICANT WEATHER AND/OR OBSTRUCTIONS TO VISIBILITY.

* - THESE STATIONS ARE NOT NWS STATIONS...THUS NOT UNDER NWS
QUALITY CONTROL.  THEY ALSO DO NOT REPORT WEATHER SUCH
AS PRECIPITATION OR FOG.

IAZ001>003-012>014-020>022-031>034-043>046-281100-
   NORTHWEST IOWA

CITY           SKY/WX    TMP DP  RH WIND       PRES   REMARKS
CARROLL *      LGT RAIN  63  63 100 SE12G18   29.94F
CHEROKEE *     RAIN      64  64 100 E10       29.89F
DENISON *      HVY RAIN  63  63 100 SE13G20   29.87F
LE MARS *      CLOUDY    66  64  94 E7G16     29.87F FOG
ORANGE CITY *  RAIN      64  64 100 E8        29.89F
SHELDON *      CLOUDY    63  63 100 E10       29.91F
SIOUX CITY     LGT RAIN  67  62  84 E14       29.83F
SPENCER        LGT RAIN  64  61  90 SE12      29.96R
STORM LAKE *   LGT RAIN  63  63 100 SE13G21   29.94F
$$

IAZ055>058-069>071-079>083-090>094-281100-
   SOUTHWEST IOWA

CITY           SKY/WX    TMP DP  RH WIND       PRES   REMARKS
ATLANTIC *     LGT RAIN  64  64 100 SE12G21   29.92F
AUDUBON *      RAIN      63  61  94 SE10G16   29.95S
CLARINDA *     CLOUDY    66  66 100 SE13      29.93S
COUNCIL BLFS * CLOUDY    66  66 100 SE21      29.84F
CRESTON *      CLOUDY    63  63 100 SE7       30.00R
HARLAN  *      RAIN      64  64 100 SE18G25   29.91F
LAMONI         CLOUDY    66  61  84 SE6       29.99F
RED OAK *      CLOUDY    66  66 100 SE10G17   29.89F
SHENANDOAH *   CLOUDY    68  66  94 SE14      29.89F
$$

IAZ047>049-059>061-072>074-084-281100-
   CENTRAL IOWA

CITY           SKY/WX    TMP DP  RH WIND       PRES   REMARKS
AMES           RAIN      63  61  93 SE5       30.03F FOG
ANKENY *       CLOUDY    64  63  94 SE7       30.01F
CHARITON *     LGT RAIN  63  61  94 E8        30.03F
DES MOINES     LGT RAIN  65  60  84 E12       29.99F
GRINNELL*      LGT RAIN  61  59  94 SE7       30.08S
KNOXVILLE *    CLOUDY    63  61  94 SE7       30.04F
MARSHALLTOWN   LGT RAIN  61  60  97 E9        30.05F FOG
PELLA *        LGT RAIN  63  63 100 E6        30.07F
PERRY *        RAIN      63  63 100 E12       29.98F
$$

IAZ004>006-015-016-023>025-035-036-281100-
   NORTH CENTRAL IOWA

CITY           SKY/WX    TMP DP  RH WIND       PRES   REMARKS
ALGONA *       LGT RAIN  63  61  94 SE15      30.01S
CLARION *      CLOUDY    63  61  94 SE12      30.03S FOG
ESTHERVILLE    LGT RAIN  62  61  96 SE12      29.99S
FORT DODGE *   CLOUDY    63  59  88 SE7       30.02S
MASON CITY     CLOUDY    61  60  97 SE8       30.05S
FOREST CITY *  RAIN      61  61 100 SE7       30.03S
IOWA FALLS *   DRIZZLE   63  61  94 SE6       30.05F
$$

IAZ007>011-017>019-026>030-037>042-050>054-066-281100-
   NORTHEAST IOWA

CITY           SKY/WX    TMP DP  RH WIND       PRES   REMARKS
CEDAR RAPIDS   CLOUDY    60  59  96 CALM      30.09R
CHARLES CITY * LGT RAIN  61  61 100 S7        30.06F
CLINTON *      CLOUDY    61  57  88 SE6       30.12R
DECORAH *      CLOUDY    61  59  94 S7        30.05F
DUBUQUE        CLOUDY    60  58  92 S3        30.10S
MONTICELLO *   CLEAR     59  59 100 CALM      30.09F
OELWEIN *        N/A     63  59  88 S7        30.07F
WATERLOO       LGT RAIN  62  60  93 S9        30.07R
$$

IAZ064-065-067-068-078-281100-
   EAST CENTRAL IOWA

CITY           SKY/WX    TMP DP  RH WIND       PRES   REMARKS
DAVENPORT      CLOUDY    62  58  86 S5        30.09R
IOWA CITY      CLOUDY    61  58  90 NE3       30.09R
MT. PLEASANT * CLOUDY    61  57  87 SE6       30.06F
MUSCATINE *    CLEAR     59  57  94 CALM      30.07S
QUAD CITIES    CLOUDY    61  57  87 CALM      30.08S
$$

IAZ062-063-075>077-085>089-095>099-281100-
   SOUTHEAST IOWA

CITY           SKY/WX    TMP DP  RH WIND       PRES   REMARKS
BURLINGTON     MOCLDY    62  58  86 SE7       30.07S
FAIRFIELD *    MOCLDY    59  57  94 CALM      30.07R
FORT MADISON * CLEAR     63  57  82 S7        30.07F
KEOKUK *       CLEAR     63  59  88 SE6       30.05F
OSKALOOSA *    CLOUDY    61  59  94 CALM      30.08R
CENTERVILLE *  MOCLDY    63  59  88 CALM      30.07R
OTTUMWA        CLOUDY    61  60  97 N6        30.06R
WASHINGTON *     N/A    N/A N/A N/A MISG        N/A
$$

ABBREVIATIONS USED IN REMARKS
   TC - TEMPERATURES IN CELSIUS
  WCI - WIND CHILL INDEX
   HX - HEAT INDEX
  VSB - VISIBILITY
$$



USA.gov is the U.S. government's official web portal to all federal, state and local government web resources and services.